Hourly Data Report for October 19, 2020

SAINT JOHN A
NEW BRUNSWICK
Current Station Operator: NAVCAN

45°18'58.000" N
65°53'24.000" W
108.80 m
8104901
71609
YSJ

Download Data

Hourly Data (October 2020)
Hourly Data Report for October 19, 2020
TIME
LST
Temp Definition
°C
Dew Point Definition
°C
Rel Hum Definition
%
Precip. Amount Definition
mm

Wind Dir Definition
10's deg

Wind Spd Definition
km/h
Visibility Definition
km
Stn Press Definition
kPa
Hmdx Definition


Wind Chill Definition


Weather Definition


00:00 6.2 4.7 90 LegendMM 11 10 LegendMM 101.83     LegendNANA
01:00 1.9 1.4 97 LegendMM 34 4 24.1 101.79     LegendNANA
02:00 0.7 0.7 100 LegendMM 36 1 24.1 101.76     Clear
03:00 0.7 0.6 100 LegendMM 31 3 24.1 101.71     LegendNANA
04:00 3.9 3.8 100 LegendMM 16 4 24.1 101.77     LegendNANA
05:00 4.3 4.3 99 LegendMM 36 2 24.1 101.68     Mostly Cloudy
06:00 5.5 5.5 100 LegendMM 36 1 24.1 101.70     LegendNANA
07:00 6.2 6.1 99 LegendMM 36 3 24.1 101.73     LegendNANA
08:00 8.1 7.8 98 LegendMM 28 4 24.1 101.75     Cloudy
09:00 11.3 8.1 80 LegendMM 12 15 24.1 101.57     LegendNANA
10:00 11.7 7.5 76 LegendMM 16 12 24.1 101.69     LegendNANA
11:00 13.5 7.2 65 LegendMM 24 13 24.1 101.66     Mostly Cloudy
12:00 13.3 7.5 68 LegendMM 19 10 24.1 101.67     LegendNANA
13:00 13.7 7.7 67 LegendMM 16 11 24.1 101.63     LegendNANA
14:00 13.7 7.6 66 LegendMM 19 15 24.1 101.56     Mostly Cloudy
15:00 13.8 7.7 67 LegendMM 20 15 24.1 101.56     LegendNANA
16:00 12.2 7.6 73 LegendMM 23 13 LegendMM 101.51     LegendNANA
17:00 11.0 7.6 79 LegendMM 22 7 24.1 101.50     Cloudy
18:00 8.6 7.1 90 LegendMM 36 3 24.1 101.49     LegendNANA
19:00 6.8 6.5 98 LegendMM 36 2 24.1 101.49     LegendNANA
20:00 9.0 7.9 93 LegendMM 20 1 LegendMM 101.44     Cloudy
21:00 10.5 8.6 88 LegendMM 15 4 24.1 101.38     LegendNANA
22:00 10.3 9.2 93 LegendMM 23 4 8.1 101.43     Drizzle, Fog
23:00 10.0 10.0 100 LegendMM 28 5 3.2 101.43     Drizzle, Fog

Notes on Data Quality.

Legend

  • E = Estimated
  • M = Missing
  • NA = Not Available*
  • [empty] = Indicates an unobserved value
Date modified: